When you browse on this site, cookies collect data to enhance your experience and personalize the content and advertising you see.
Visit our Privacy Policy to learn more. By continuing to use the site, you agree to this use of cookies and data.
  • In Spain
  • List of Countries
  • For 7 days
  • Water Temperature
  • Satellite Maps
  • Weather Map
  • Weather Widgets
  • user-avatar
    Login

    Hourly Weather Ugoda

    Today, 16 February, Saturday

    Time Temperature Precipitation Wind Pressure Humidity
    00:00 +2°C° 0 mm 2 mps 763 mmHg 88%
    01:00 +2°C° 0 mm 2 mps 763 mmHg 86%
    02:00 +2°C° 0 mm 2 mps 762 mmHg 85%
    03:00 +2°C° 0 mm 2 mps 762 mmHg 84%
    04:00 +1°C° 0 mm 2 mps 762 mmHg 83%
    05:00 +1°C° 0 mm 2 mps 762 mmHg 83%
    06:00 0°C° 0 mm 3 mps 761 mmHg 82%
    07:00 0°C° 0 mm 3 mps 761 mmHg 82%
    08:00 +2°C° 0 mm 3 mps 761 mmHg 76%
    09:00 +3°C° 0 mm 4 mps 761 mmHg 69%
    10:00 +5°C° 0 mm 4 mps 761 mmHg 63%
    11:00 +6°C° 0 mm 4 mps 760 mmHg 60%
    12:00 +7°C° 0 mm 4 mps 760 mmHg 57%
    13:00 +8°C° 0 mm 5 mps 760 mmHg 54%
    14:00 +8°C° 0 mm 4 mps 759 mmHg 56%
    15:00 +8°C° 0 mm 4 mps 759 mmHg 57%
    16:00 +8°C° 0 mm 4 mps 759 mmHg 59%
    17:00 +7°C° 0 mm 4 mps 758 mmHg 62%
    18:00 +6°C° 0 mm 4 mps 758 mmHg 66%
    19:00 +5°C° 0 mm 4 mps 758 mmHg 70%
    20:00 +4°C° 0 mm 4 mps 758 mmHg 71%
    21:00 +4°C° 0 mm 4 mps 758 mmHg 73%
    22:00 +3°C° 0 mm 4 mps 758 mmHg 75%
    23:00 +3°C° 0 mm 4 mps 758 mmHg 78%

    Tomorrow, 17 February, Sunday

    Time Temperature Precipitation Wind Pressure Humidity
    00:00 +3°C° 0 mm 4 mps 758 mmHg 80%
    01:00 +2°C° 0 mm 3 mps 758 mmHg 83%
    02:00 +2°C° 0 mm 3 mps 758 mmHg 84%
    03:00 +2°C° 0 mm 3 mps 758 mmHg 86%
    04:00 +1°C° 0 mm 3 mps 757 mmHg 88%
    05:00 +1°C° 0 mm 3 mps 757 mmHg 89%
    06:00 +1°C° 0 mm 3 mps 758 mmHg 90%
    07:00 +1°C° 0 mm 3 mps 758 mmHg 91%
    08:00 +2°C° 0 mm 3 mps 758 mmHg 89%
    09:00 +3°C° 0 mm 3 mps 758 mmHg 88%
    10:00 +3°C° 0 mm 3 mps 759 mmHg 86%
    11:00 +4°C° 0 mm 3 mps 759 mmHg 85%
    12:00 +5°C° 0 mm 3 mps 759 mmHg 84%
    13:00 +5°C° 0 mm 3 mps 759 mmHg 84%
    14:00 +5°C° 0 mm 3 mps 758 mmHg 84%
    15:00 +6°C° 0 mm 2 mps 758 mmHg 85%
    16:00 +7°C° 0 mm 2 mps 758 mmHg 86%
    17:00 +6°C° 0 mm 2 mps 758 mmHg 88%
    18:00 +7°C° 0 mm 1 mps 758 mmHg 90%
    19:00 +6°C° 0 mm 1 mps 759 mmHg 91%
    20:00 +4°C° 0 mm 0 mps 759 mmHg 92%
    21:00 +4°C° 0 mm 0 mps 759 mmHg 92%
    22:00 +3°C° 0 mm 0 mps 759 mmHg 92%
    23:00 +3°C° 0 mm 0 mps 759 mmHg 93%

    Day after tomorrow, 18 February, Monday

    Time Temperature Precipitation Wind Pressure Humidity
    00:00 +3°C° 0 mm 0 mps 758 mmHg 93%
    01:00 +4°C° 0 mm 1 mps 758 mmHg 93%
    02:00 +4°C° 0 mm 1 mps 758 mmHg 94%
    03:00 +3°C° 0 mm 1 mps 758 mmHg 95%
    04:00 +3°C° 0 mm 1 mps 758 mmHg 95%
    05:00 +2°C° 0 mm 2 mps 758 mmHg 95%
    06:00 +2°C° 0 mm 2 mps 758 mmHg 95%
    07:00 +2°C° 0 mm 2 mps 758 mmHg 95%
    08:00 +3°C° 0 mm 2 mps 758 mmHg 90%
    09:00 +3°C° 0 mm 3 mps 758 mmHg 85%
    10:00 +4°C° 0 mm 3 mps 758 mmHg 81%
    11:00 +5°C° 0 mm 3 mps 758 mmHg 75%
    12:00 +8°C° 0 mm 3 mps 757 mmHg 69%
    13:00 +9°C° 0 mm 3 mps 757 mmHg 63%
    14:00 +8°C° 0 mm 3 mps 757 mmHg 64%
    15:00 +8°C° 0 mm 3 mps 756 mmHg 64%
    16:00 +8°C° 0 mm 3 mps 756 mmHg 64%
    17:00 +7°C° 0 mm 3 mps 756 mmHg 69%
    18:00 +5°C° 0 mm 3 mps 756 mmHg 73%
    19:00 +4°C° 0 mm 3 mps 756 mmHg 77%
    20:00 +3°C° 0 mm 3 mps 755 mmHg 78%
    21:00 +3°C° 0 mm 3 mps 755 mmHg 80%
    22:00 +3°C° 0 mm 3 mps 755 mmHg 81%
    23:00 +2°C° 0 mm 3 mps 755 mmHg 81%

    19 February, Tuesday

    Time Temperature Precipitation Wind Pressure Humidity
    00:00 +2°C° 0 mm 3 mps 755 mmHg 81%
    01:00 +2°C° 0 mm 3 mps 754 mmHg 82%
    02:00 +1°C° 0 mm 3 mps 754 mmHg 83%
    03:00 +1°C° 0 mm 3 mps 754 mmHg 84%
    04:00 +1°C° 0 mm 3 mps 753 mmHg 85%
    05:00 +1°C° 0 mm 3 mps 753 mmHg 85%
    06:00 +1°C° 0 mm 3 mps 753 mmHg 85%
    07:00 0°C° 0 mm 3 mps 752 mmHg 86%
    08:00 +1°C° 0 mm 4 mps 752 mmHg 83%
    09:00 +3°C° 0 mm 4 mps 752 mmHg 80%
    10:00 +4°C° 0 mm 4 mps 752 mmHg 77%
    11:00 +5°C° 0 mm 5 mps 752 mmHg 73%
    12:00 +6°C° 0 mm 5 mps 752 mmHg 69%
    13:00 +7°C° 0 mm 5 mps 751 mmHg 66%
    14:00 +8°C° 0 mm 5 mps 751 mmHg 67%
    15:00 +8°C° 0 mm 5 mps 751 mmHg 68%
    16:00 +8°C° 0 mm 5 mps 751 mmHg 70%
    17:00 +7°C° 0.4 mm 5 mps 751 mmHg 75%
    18:00 +6°C° 0.4 mm 5 mps 751 mmHg 80%
    19:00 +5°C° 0.4 mm 5 mps 751 mmHg 86%
    20:00 +5°C° 0 mm 5 mps 752 mmHg 87%
    21:00 +3°C° 0 mm 5 mps 752 mmHg 88%
    22:00 +3°C° 0 mm 5 mps 752 mmHg 89%
    23:00 +3°C° 0 mm 5 mps 752 mmHg 88%

    20 February, Wednesday

    Time Temperature Precipitation Wind Pressure Humidity
    00:00 +2°C° 0 mm 5 mps 752 mmHg 87%
    01:00 +2°C° 0 mm 6 mps 753 mmHg 87%
    02:00 +2°C° 0 mm 6 mps 753 mmHg 86%
    03:00 +2°C° 0 mm 6 mps 753 mmHg 86%
    04:00 +2°C° 0 mm 6 mps 753 mmHg 85%
    05:00 +2°C° 0 mm 6 mps 753 mmHg 85%
    06:00 +2°C° 0 mm 6 mps 753 mmHg 84%
    07:00 +2°C° 0 mm 6 mps 753 mmHg 83%
    08:00 +2°C° 0 mm 6 mps 754 mmHg 81%
    09:00 +2°C° 0 mm 7 mps 754 mmHg 79%
    10:00 +3°C° 0 mm 7 mps 754 mmHg 76%
    11:00 +3°C° 0 mm 7 mps 754 mmHg 76%
    12:00 +3°C° 0 mm 6 mps 755 mmHg 75%
    13:00 +3°C° 0 mm 6 mps 755 mmHg 75%
    14:00 +4°C° 0 mm 6 mps 755 mmHg 73%
    15:00 +5°C° 0 mm 5 mps 755 mmHg 72%
    16:00 +6°C° 0 mm 4 mps 755 mmHg 70%
    17:00 +5°C° 0 mm 4 mps 755 mmHg 74%
    18:00 +5°C° 0 mm 4 mps 755 mmHg 78%
    19:00 +5°C° 0 mm 3 mps 755 mmHg 82%
    20:00 +5°C° 0.1 mm 4 mps 756 mmHg 83%
    21:00 +5°C° 0.1 mm 4 mps 756 mmHg 85%
    22:00 +5°C° 0.1 mm 4 mps 756 mmHg 86%
    23:00 +4°C° 0.2 mm 4 mps 755 mmHg 87%

    21 February, Thursday

    Time Temperature Precipitation Wind Pressure Humidity
    00:00 +4°C° 0.2 mm 4 mps 755 mmHg 87%
    01:00 +4°C° 0.2 mm 4 mps 755 mmHg 88%
    02:00 +4°C° 0.4 mm 4 mps 755 mmHg 89%
    03:00 +3°C° 0.4 mm 5 mps 754 mmHg 90%
    04:00 +3°C° 0.4 mm 5 mps 754 mmHg 91%
    05:00 +5°C° 0.2 mm 5 mps 754 mmHg 91%
    06:00 +5°C° 0.2 mm 5 mps 754 mmHg 92%
    07:00 +5°C° 0.2 mm 5 mps 754 mmHg 92%
    08:00 +4°C° 0.1 mm 6 mps 754 mmHg 90%
    09:00 +5°C° 0.1 mm 6 mps 754 mmHg 89%
    10:00 +5°C° 0.1 mm 6 mps 754 mmHg 87%
    11:00 +7°C° 0.1 mm 6 mps 753 mmHg 86%
    12:00 +7°C° 0.1 mm 6 mps 753 mmHg 85%
    13:00 +7°C° 0.1 mm 6 mps 753 mmHg 83%
    14:00 +7°C° 1 mm 6 mps 753 mmHg 85%
    15:00 +5°C° 1 mm 6 mps 752 mmHg 87%
    16:00 +5°C° 1 mm 6 mps 752 mmHg 89%
    17:00 +6°C° 0.1 mm 5 mps 752 mmHg 88%
    18:00 +6°C° 0.1 mm 5 mps 752 mmHg 88%
    19:00 +6°C° 0.1 mm 5 mps 752 mmHg 88%
    20:00 +6°C° 0.1 mm 5 mps 753 mmHg 89%
    21:00 +5°C° 0.1 mm 5 mps 753 mmHg 89%
    22:00 +5°C° 0.1 mm 4 mps 753 mmHg 90%
    23:00 +5°C° 0.1 mm 5 mps 754 mmHg 89%
    Show more